STARLINK-1803 (46703 NORAD) Tracking and Keplerian Element Data
This shows tracking and keplerian element data for the satellite.
Feedback or suggestion? Click here.
Element | Value |
Catalog | 46703 |
Name | STARLINK-1803 |
Epoch Orbit | 1478 |
Epoch Day | 18.25002315 |
Epoch Year | 2021 |
RAAN | 25.279 |
Inclination | 53.053 |
Eccentricity | 0.0001943 |
Argument of Perigee | 70.2743 |
Mean Anonmoly | 295.3646 |
Mean Motion | 15.06397583 |
Decay Rate | -0.00026581 |
L1 | 1 46703U 20073AK 21018.25002315 -.00026581 00000-0 -17723-2 0 9998 |
L2 | 2 46703 53.0530 25.2790 0001943 70.2743 295.3646 15.06397583 14785 |
Live tracking and technical data element details for STARLINK-1803 (NORAD 46703). STARLINK-1803 can be tracked NOW for your location showing map with azimuth and elevation plus other details from your city location.
Track the satellite on the map from your city or location and see movement details for azimuth, elevation, latitude, longitude, range, height, and movement on the map or in text.
IsCatalogInMostPopularTable: catalog: 46703, numindb: 28
Update: records affected: 1
GetName: 46703 STARLINK-1803
Hit Count: updated at: Tue, 19 Jan 2021 03:30:53 GMT